QPF
0.00 0.00 0.00 0.00 0.00 0.00 0.00 0.00 0.00 0.00 0.00 0.00 0.00 0.00 0.00 0.00 0.00 0.00 0.00 0.00 0.00 0.00 0.00 0.00 0.00 0.00 0.00 0.00 0.00 0.00 0.00 0.00 0.05 0.05 0.01 0.00 0.00 0.00 0.00 0.00 0.00 0.00 0.00 0.00
0.00 0.00 0.00 0.00 0.00 0.00 0.00 0.00 0.00 0.00 0.00 0.00 0.00 0.00 0.00 0.00 0.00 0.00 0.00 0.00 0.00 0.00 0.00 0.00 0.00 0.00 0.00 0.00 0.00 0.00 0.00 0.00 0.01 0.07 0.07 0.04 0.06 0.04 0.05 0.03 0.00 0.00 0.00 0.00
0.00 0.00 0.00 0.00 0.00 0.00 0.00 0.00 0.00 0.00 0.00 0.00 0.00 0.00 0.00 0.00 0.00 0.00 0.00 0.00 0.00 0.00 0.00 0.00 0.00 0.00 0.00 0.00 0.00 0.00 0.00 0.00 0.00 0.00 0.04 0.07 0.08 0.06 0.10 0.06 0.02 0.01 0.00 0.00
0.00 0.00 0.00 0.00 0.00 0.00 0.00 0.00 0.00 0.00 0.00 0.00 0.00 0.00 0.00 0.00 0.00 0.00 0.00 0.00 0.00 0.00 0.00 0.00 0.00 0.00 0.00 0.00 0.00 0.00 0.00 0.00 0.00 0.00 0.00 0.01 0.01 0.02 0.04 0.05 0.05 0.09 0.05 0.00
0.00 0.00 0.00 0.00 0.00 0.00 0.00 0.00 0.00 0.00 0.00 0.00 0.00 0.00 0.00 0.00 0.00 0.00 0.00 0.00 0.00 0.00 0.00 0.00 0.00 0.00 0.00 0.00 0.00 0.00 0.00 0.00 0.00 0.00 0.00 0.00 0.00 0.00 0.00 0.01 0.05 0.04 0.08 0.11
0.00 0.00 0.00 0.00 0.00 0.00 0.00 0.00 0.00 0.00 0.00 0.00 0.00 0.00 0.00 0.00 0.00 0.00 0.00 0.00 0.00 0.00 0.00 0.00 0.00 0.00 0.00 0.00 0.00 0.00 0.00 0.00 0.00 0.00 0.00 0.00 0.00 0.00 0.00 0.00 0.02 0.04 0.05 0.06
0.00 0.00 0.00 0.00 0.00 0.00 0.00 0.00 0.00 0.00 0.00 0.00 0.00 0.00 0.00 0.00 0.00 0.00 0.00 0.00 0.00 0.00 0.00 0.00 0.00 0.00 0.00 0.00 0.00 0.00 0.00 0.00 0.00 0.00 0.00 0.00 0.00 0.00 0.00 0.00 0.00 0.00 0.01 0.01
0.00 0.00 0.00 0.00 0.00 0.00 0.00 0.00 0.00 0.00 0.00 0.00 0.00 0.00 0.00 0.00 0.00 0.00 0.00 0.00 0.00 0.00 0.00 0.00 0.00 0.00 0.00 0.00 0.00 0.00 0.00 0.00 0.00 0.00 0.00 0.00 0.00 0.00 0.00 0.00 0.00 0.00 0.00 0.00
0.00 0.00 0.00 0.00 0.00 0.00 0.00 0.00 0.00 0.00 0.00 0.00 0.00 0.00 0.00 0.00 0.00 0.00 0.00 0.00 0.00 0.00 0.00 0.00 0.00 0.00 0.00 0.00 0.00 0.00 0.00 0.00 0.00 0.00 0.00 0.00 0.00 0.00 0.00 0.00 0.00 0.00 0.00 0.00
0.00 0.00 0.00 0.00 0.00 0.00 0.00 0.00 0.00 0.00 0.00 0.00 0.00 0.00 0.00 0.00 0.00 0.00 0.00 0.00 0.00 0.00 0.00 0.00 0.00 0.00 0.00 0.00 0.00 0.00 0.00 0.00 0.00 0.00 0.00 0.00 0.00 0.00 0.00 0.00 0.00 0.00 0.00 0.00
0.00 0.00 0.00 0.00 0.00 0.00 0.00 0.00 0.00 0.00 0.00 0.00 0.00 0.00 0.00 0.00 0.00 0.00 0.00 0.00 0.00 0.00 0.00 0.00 0.00 0.00 0.00 0.00 0.00 0.00 0.00 0.00 0.00 0.00 0.00 0.00 0.00 0.00 0.00 0.00 0.00 0.00 0.00 0.00
0.00 0.00 0.00 0.00 0.00 0.00 0.00 0.00 0.01 0.02 0.00 0.00 0.01 0.00 0.00 0.00 0.00 0.00 0.00 0.00 0.00 0.00 0.00 0.00 0.00 0.00 0.00 0.00 0.00 0.00 0.00 0.00 0.00 0.00 0.00 0.00 0.00 0.00 0.00 0.00 0.00 0.00 0.00 0.00
0.00 0.00 0.00 0.00 0.00 0.00 0.00 0.00 0.00 0.01 0.02 0.01 0.02 0.00 0.00 0.00 0.00 0.00 0.00 0.00 0.00 0.00 0.00 0.00 0.00 0.00 0.00 0.00 0.00 0.00 0.00 0.00 0.00 0.00 0.00 0.00 0.00 0.00 0.00 0.00 0.00 0.00 0.00 0.00
0.00 0.00 0.00 0.00 0.00 0.00 0.00 0.00 0.00 0.00 0.01 0.01 0.00 0.00 0.01 0.00 0.00 0.00 0.00 0.00 0.00 0.00 0.00 0.00 0.00 0.00 0.00 0.00 0.00 0.00 0.00 0.00 0.00 0.00 0.00 0.00 0.00 0.00 0.00 0.00 0.00 0.00 0.00 0.00
0.00 0.00 0.00 0.00 0.00 0.00 0.00 0.00 0.00 0.00 0.00 0.00 0.00 0.00 0.00 0.00 0.00 0.00 0.00 0.00 0.00 0.00 0.00 0.00 0.00 0.00 0.00 0.00 0.00 0.00 0.00 0.00 0.00 0.00 0.00 0.00 0.00 0.00 0.00 0.00 0.00 0.00 0.00 0.00
0.01 0.00 0.00 0.00 0.00 0.00 0.00 0.00 0.00 0.00 0.00 0.00 0.00 0.00 0.00 0.00 0.00 0.00 0.00 0.00 0.00 0.00 0.00 0.00 0.00 0.00 0.00 0.00 0.00 0.00 0.00 0.00 0.00 0.00 0.00 0.00 0.00 0.00 0.00 0.00 0.00 0.00 0.00 0.00
0.01 0.00 0.00 0.00 0.00 0.00 0.01 0.00 0.00 0.00 0.00 0.00 0.00 0.00 0.00 0.00 0.00 0.00 0.00 0.00 0.00 0.00 0.00 0.00 0.00 0.00 0.00 0.00 0.00 0.00 0.00 0.00 0.00 0.00 0.00 0.00 0.00 0.00 0.00 0.00 0.00 0.00 0.00 0.00
0.01 0.00 0.00 0.00 0.00 0.01 0.00 0.00 0.00 0.00 0.00 0.00 0.00 0.00 0.00 0.00 0.00 0.00 0.00 0.00 0.00 0.00 0.00 0.00 0.00 0.00 0.00 0.00 0.00 0.00 0.00 0.00 0.00 0.00 0.00 0.00 0.00 0.00 0.00 0.00 0.00 0.00 0.00 0.00
0.00 0.01 0.00 0.02 0.01 0.00 0.00 0.00 0.00 0.00 0.00 0.00 0.00 0.00 0.00 0.00 0.00 0.00 0.00 0.00 0.00 0.00 0.00 0.00 0.00 0.00 0.00 0.00 0.00 0.00 0.00 0.00 0.00 0.00 0.00 0.00 0.00 0.00 0.00 0.00 0.00 0.00 0.00 0.01
0.00 0.00 0.01 0.01 0.02 0.01 0.05 0.01 0.00 0.00 0.01 0.00 0.00 0.00 0.00 0.00 0.00 0.00 0.00 0.00 0.00 0.00 0.00 0.00 0.00 0.00 0.00 0.00 0.00 0.00 0.00 0.00 0.00 0.00 0.00 0.00 0.00 0.00 0.00 0.00 0.00 0.00 0.00 0.00
0.01 0.01 0.00 0.00 0.01 0.01 0.05 0.03 0.00 0.00 0.01 0.00 0.00 0.00 0.00 0.00 0.00 0.00 0.00 0.00 0.00 0.00 0.00 0.00 0.00 0.00 0.00 0.00 0.00 0.00 0.00 0.00 0.00 0.00 0.00 0.00 0.00 0.00 0.00 0.00 0.00 0.00 0.00 0.00
0.01 0.01 0.01 0.01 0.01 0.02 0.02 0.01 0.01 0.02 0.00 0.00 0.00 0.00 0.00 0.00 0.00 0.00 0.00 0.00 0.00 0.00 0.00 0.00 0.00 0.00 0.00 0.00 0.00 0.00 0.00 0.00 0.00 0.00 0.00 0.00 0.00 0.00 0.00 0.00 0.00 0.00 0.00 0.00
0.02 0.01 0.01 0.00 0.02 0.02 0.03 0.02 0.01 0.00 0.00 0.00 0.00 0.00 0.00 0.00 0.00 0.00 0.00 0.00 0.00 0.00 0.00 0.00 0.00 0.00 0.00 0.00 0.00 0.00 0.00 0.00 0.00 0.00 0.00 0.00 0.00 0.00 0.00 0.00 0.00 0.00 0.00 0.00
0.02 0.04 0.03 0.02 0.02 0.03 0.03 0.00 0.00 0.00 0.00 0.00 0.00 0.00 0.00 0.00 0.00 0.00 0.00 0.00 0.00 0.00 0.00 0.00 0.00 0.00 0.00 0.00 0.00 0.00 0.00 0.00 0.00 0.00 0.00 0.00 0.00 0.00 0.00 0.00 0.00 0.00 0.00 0.00
0.00 0.01 0.01 0.02 0.03 0.02 0.01 0.00 0.00 0.00 0.00 0.00 0.00 0.00 0.00 0.00 0.00 0.00 0.00 0.00 0.00 0.00 0.00 0.00 0.00 0.00 0.00 0.00 0.00 0.00 0.00 0.00 0.00 0.00 0.00 0.00 0.00 0.00 0.00 0.00 0.00 0.00 0.00 0.00
0.01 0.03 0.01 0.02 0.03 0.01 0.00 0.00 0.00 0.00 0.00 0.00 0.00 0.00 0.00 0.00 0.00 0.00 0.00 0.00 0.00 0.00 0.00 0.00 0.00 0.00 0.00 0.00 0.00 0.00 0.00 0.00 0.00 0.00 0.00 0.00 0.00 0.00 0.00 0.00 0.00 0.00 0.00 0.00
MSLP
1004.17 1004.55 1004.55 1004.23 1003.83 1003.44 1002.92 1002.58 1002.29 1001.30 1000.56 1000.79 1000.87 1001.05 1001.27 1001.22 1001.20 1001.57 1001.77 1002.40 1002.59 1003.04 1002.90 1002.56 1002.80 1003.32 1003.61 1003.90 1004.28 1004.89 1005.45 1005.95 1006.69 1006.98 1007.24 1007.30 1007.48 1007.59 1007.73 1007.99 1008.07 1008.26 1008.31 1008.61
1004.31 1004.12 1003.51 1003.25 1002.92 1002.73 1002.32 1002.18 1001.86 1001.09 1000.45 1000.53 1000.54 1000.72 1000.64 1000.89 1001.20 1001.46 1001.63 1002.03 1002.24 1002.60 1002.63 1002.71 1002.98 1003.33 1003.57 1004.06 1004.29 1004.67 1005.13 1005.72 1006.10 1007.02 1007.22 1007.36 1007.56 1007.58 1007.35 1007.61 1007.69 1007.30 1007.53 1007.62
1003.72 1002.81 1002.64 1002.30 1001.96 1001.91 1001.75 1001.74 1001.61 1001.65 1000.98 1000.88 1001.26 1001.41 1001.31 1000.96 1000.83 1001.00 1001.18 1001.31 1001.63 1002.04 1002.47 1002.53 1003.02 1003.28 1003.84 1004.42 1004.58 1004.82 1005.12 1005.48 1005.93 1006.48 1007.06 1007.38 1007.55 1007.57 1007.53 1007.57 1007.24 1007.03 1007.11 1007.16
1002.83 1001.99 1001.79 1001.42 1001.41 1001.24 1001.40 1001.30 1001.33 1002.06 1002.32 1002.58 1001.97 1002.39 1001.69 1001.11 1000.89 1000.84 1000.81 1000.98 1001.24 1001.46 1001.76 1002.23 1002.71 1003.26 1003.88 1004.20 1004.38 1004.84 1005.33 1005.84 1005.92 1006.25 1007.15 1007.78 1008.05 1008.04 1007.61 1007.56 1007.00 1007.07 1006.78 1006.47
1002.48 1001.73 1001.47 1000.97 1000.72 1000.85 1001.20 1001.35 1002.01 1002.51 1003.17 1003.15 1002.93 1003.31 1002.29 1001.50 1001.10 1000.63 1000.40 1000.48 1000.51 1000.79 1001.39 1002.02 1002.65 1003.12 1003.98 1004.17 1004.72 1005.31 1005.88 1006.28 1006.47 1006.80 1007.12 1007.54 1007.85 1007.88 1007.78 1007.42 1007.24 1006.89 1006.38 1006.01
1002.47 1001.54 1001.50 1000.88 1000.66 1000.71 1001.13 1001.73 1002.48 1003.12 1003.87 1004.27 1004.00 1003.60 1002.71 1001.64 1000.50 999.96 999.43 999.44 999.79 1000.40 1001.15 1002.05 1002.73 1003.28 1003.99 1004.31 1004.83 1005.46 1005.88 1006.40 1006.77 1007.05 1007.34 1007.67 1007.74 1007.66 1007.57 1007.39 1007.21 1006.78 1006.11 1006.08
1002.63 1001.92 1001.47 1001.22 1001.02 1001.01 1001.72 1002.39 1004.22 1004.91 1005.21 1004.85 1004.24 1003.67 1002.55 1000.66 1000.11 999.65 998.83 998.88 999.84 1000.88 1001.95 1002.65 1003.22 1003.69 1004.00 1004.59 1004.99 1005.41 1005.78 1006.36 1006.61 1006.98 1007.22 1007.42 1007.54 1007.70 1007.77 1007.51 1007.05 1006.57 1006.00 1005.53
1003.22 1002.80 1001.63 1001.18 1001.37 1001.79 1002.15 1003.37 1004.81 1005.56 1006.18 1005.81 1004.68 1003.32 1001.98 1000.82 1000.13 999.28 999.72 999.49 1000.52 1001.92 1002.65 1003.21 1003.77 1004.13 1004.55 1004.95 1005.15 1005.30 1005.67 1006.00 1006.13 1006.38 1006.69 1006.89 1007.07 1007.38 1007.43 1007.26 1007.01 1006.58 1006.06 1005.52
1003.40 1002.91 1002.13 1001.78 1001.75 1002.22 1002.72 1003.25 1004.03 1005.34 1006.24 1006.48 1005.62 1004.10 1002.47 1001.35 1000.58 1001.05 1000.92 1001.16 1002.04 1002.56 1003.15 1003.57 1004.18 1004.49 1004.85 1005.15 1005.42 1005.48 1005.74 1006.04 1006.24 1006.52 1006.75 1006.97 1006.92 1007.05 1007.20 1007.09 1006.91 1006.59 1006.24 1005.69
1003.86 1003.74 1003.12 1002.53 1002.64 1002.74 1003.19 1003.54 1004.46 1005.69 1007.06 1007.24 1006.20 1004.96 1004.00 1003.49 1003.22 1002.86 1002.68 1003.27 1003.44 1003.53 1003.86 1004.21 1004.62 1004.87 1005.09 1005.30 1005.40 1005.41 1005.82 1006.13 1006.41 1006.76 1007.07 1007.12 1007.07 1006.95 1007.01 1006.95 1006.88 1006.52 1006.20 1005.91
1004.60 1005.07 1004.66 1004.12 1004.00 1003.91 1004.13 1004.65 1005.36 1006.36 1007.41 1008.08 1007.41 1005.54 1004.36 1004.45 1004.36 1004.16 1004.74 1004.39 1004.60 1004.69 1004.87 1004.69 1004.83 1004.86 1005.30 1005.66 1005.91 1006.10 1006.16 1006.44 1006.67 1006.70 1006.85 1006.94 1006.90 1006.65 1006.44 1006.72 1006.68 1006.42 1006.18 1006.03
1006.15 1006.22 1006.09 1005.35 1004.77 1004.57 1004.82 1005.29 1006.05 1007.18 1008.00 1007.79 1007.42 1006.08 1005.05 1004.96 1004.85 1004.79 1004.63 1005.19 1005.03 1004.59 1004.60 1004.66 1004.58 1004.84 1005.33 1005.64 1005.90 1006.28 1006.59 1006.69 1006.53 1006.32 1006.46 1006.68 1006.81 1006.79 1006.78 1006.77 1006.39 1006.13 1006.17 1006.08
1007.48 1007.35 1007.54 1006.65 1005.84 1005.20 1005.79 1006.54 1007.63 1008.44 1008.81 1008.33 1008.13 1006.51 1005.31 1005.00 1005.06 1004.99 1005.20 1005.35 1005.28 1005.16 1005.16 1004.78 1004.86 1005.28 1005.39 1005.70 1005.94 1006.00 1006.13 1006.30 1006.44 1006.39 1006.47 1006.57 1006.65 1006.78 1006.76 1006.58 1006.06 1005.95 1005.90 1005.78
1008.57 1008.79 1008.88 1008.61 1007.71 1007.07 1006.95 1006.87 1007.52 1008.65 1009.26 1008.47 1007.79 1006.71 1005.96 1005.31 1005.21 1005.30 1005.25 1005.08 1004.89 1004.94 1005.08 1005.02 1005.08 1005.41 1005.40 1005.49 1005.53 1005.61 1005.73 1005.88 1006.04 1006.12 1006.20 1006.17 1006.13 1006.17 1006.18 1005.95 1005.81 1005.63 1005.49 1005.48
1009.75 1010.02 1009.82 1009.31 1008.73 1007.92 1007.06 1006.79 1007.01 1007.38 1007.73 1008.03 1006.95 1006.22 1005.70 1004.89 1005.02 1004.55 1004.31 1004.64 1004.64 1004.48 1004.66 1004.96 1005.20 1005.29 1005.18 1005.14 1005.04 1005.06 1005.18 1005.44 1005.58 1005.69 1005.89 1005.97 1005.81 1005.67 1005.64 1005.61 1005.36 1005.18 1005.05 1004.81
1010.82 1010.94 1010.63 1010.01 1009.23 1008.13 1006.68 1006.07 1005.91 1005.69 1005.64 1005.60 1005.52 1004.70 1004.51 1004.03 1004.11 1004.23 1004.39 1004.42 1004.52 1004.38 1004.33 1004.32 1004.56 1005.03 1005.29 1005.28 1005.26 1005.29 1005.19 1005.15 1005.19 1005.31 1005.29 1005.35 1005.32 1005.37 1005.36 1005.18 1004.94 1004.69 1004.39 1004.18
1011.42 1011.77 1011.60 1010.58 1009.44 1008.71 1006.54 1004.96 1004.53 1004.45 1004.36 1004.49 1004.76 1004.70 1004.19 1004.48 1004.37 1004.40 1004.54 1004.58 1004.51 1004.62 1004.91 1005.17 1005.30 1005.46 1005.33 1005.30 1005.18 1005.11 1004.82 1004.70 1004.77 1004.81 1004.67 1004.66 1004.79 1004.68 1004.76 1004.67 1004.65 1004.24 1003.92 1003.41
1011.41 1011.96 1012.40 1011.52 1010.37 1008.40 1005.36 1003.76 1003.65 1003.47 1004.80 1004.81 1004.77 1004.90 1005.24 1005.38 1005.12 1005.05 1005.19 1005.51 1005.41 1005.44 1005.32 1005.20 1005.33 1005.30 1005.25 1005.25 1005.09 1004.88 1004.79 1004.53 1004.31 1004.15 1003.96 1003.86 1003.91 1003.89 1003.86 1003.79 1003.97 1003.95 1003.56 1003.20
1010.83 1012.06 1012.31 1011.96 1010.07 1007.73 1005.46 1004.52 1004.51 1004.65 1005.72 1005.63 1005.73 1005.80 1005.78 1005.82 1005.72 1005.92 1005.68 1005.94 1005.90 1005.68 1005.55 1005.39 1005.18 1005.07 1004.93 1004.83 1004.50 1004.36 1004.21 1003.80 1003.59 1003.48 1003.18 1002.98 1002.91 1002.98 1003.13 1003.28 1003.31 1003.29 1002.96 1002.74
1010.55 1011.68 1012.46 1011.92 1010.53 1008.50 1006.79 1006.39 1005.53 1005.40 1006.02 1006.16 1006.26 1006.41 1006.46 1006.37 1006.68 1006.40 1006.16 1006.22 1005.99 1005.72 1005.53 1005.39 1005.28 1005.16 1004.94 1004.59 1004.06 1003.85 1003.65 1003.57 1003.30 1002.93 1002.62 1002.40 1002.23 1002.11 1002.11 1002.32 1002.51 1002.34 1002.18 1001.98
1010.63 1011.33 1011.57 1011.50 1010.72 1008.93 1007.44 1006.57 1006.56 1006.57 1007.30 1006.66 1006.55 1006.52 1006.63 1006.93 1007.15 1006.71 1006.19 1006.03 1005.89 1005.70 1005.43 1005.31 1005.19 1004.94 1004.53 1004.61 1004.72 1004.42 1004.13 1003.81 1003.38 1003.07 1002.66 1002.26 1001.88 1001.63 1001.58 1001.47 1001.45 1001.47 1001.42 1001.24
1010.29 1010.62 1010.73 1010.67 1010.25 1009.16 1008.04 1007.69 1007.96 1007.70 1006.83 1006.64 1006.52 1006.58 1006.81 1006.89 1006.87 1006.76 1006.50 1006.19 1006.00 1005.86 1005.53 1005.26 1005.13 1005.42 1005.27 1005.23 1005.04 1004.71 1004.20 1003.73 1003.20 1002.83 1002.39 1002.03 1001.69 1001.36 1000.91 1000.66 1000.54 1000.60 1000.52 1000.43
1010.01 1010.20 1010.23 1010.54 1009.38 1008.47 1008.08 1008.44 1008.53 1007.96 1007.52 1007.22 1007.10 1007.07 1007.12 1007.14 1007.11 1006.96 1006.71 1006.47 1006.19 1005.77 1005.61 1005.96 1006.02 1005.81 1005.57 1005.17 1005.04 1004.32 1003.55 1003.14 1002.60 1002.12 1001.63 1001.27 1000.86 1000.39 1000.02 999.87 999.89 999.84 999.71 999.60
1009.38 1009.07 1009.65 1009.31 1008.66 1008.26 1008.57 1008.48 1008.34 1008.05 1007.75 1007.61 1007.30 1007.22 1007.31 1007.59 1007.34 1007.09 1006.81 1006.58 1006.52 1006.64 1006.64 1006.54 1006.32 1005.88 1005.26 1004.83 1004.51 1003.95 1003.11 1002.52 1002.01 1001.32 1000.90 1000.56 1000.06 999.70 999.39 999.29 999.14 998.94 998.79 998.67
1009.06 1008.42 1008.47 1008.44 1008.45 1008.38 1008.93 1008.99 1008.78 1008.26 1007.75 1007.66 1007.77 1007.77 1007.66 1007.55 1007.47 1007.41 1007.40 1007.48 1007.47 1007.37 1007.01 1006.65 1006.14 1005.45 1004.91 1004.58 1003.99 1003.48 1002.83 1002.19 1001.35 1000.66 1000.15 999.74 999.26 998.88 998.65 998.31 998.20 998.12 997.85 997.80
1008.48 1008.76 1008.76 1008.76 1008.64 1008.60 1008.60 1008.26 1007.98 1008.09 1008.35 1008.18 1008.01 1007.80 1007.71 1007.86 1007.93 1008.19 1008.31 1008.22 1007.95 1007.45 1006.91 1006.35 1005.82 1005.32 1004.71 1004.20 1003.53 1002.94 1002.44 1001.80 1000.98 1000.26 999.71 998.99 998.28 997.78 997.77 997.84 997.53 997.31 997.16 997.13
Thickness
5665 5647 5639 5660 5674 5686 5690 5687 5690 5712 5735 5727 5721 5720 5727 5738 5745 5742 5744 5744 5747 5753 5762 5769 5773 5769 5770 5774 5776 5772 5767 5763 5756 5756 5757 5758 5758 5757 5758 5759 5758 5756 5760 5758
5652 5641 5673 5684 5688 5688 5690 5684 5684 5706 5731 5727 5721 5718 5731 5734 5737 5736 5736 5739 5741 5748 5753 5759 5758 5761 5763 5761 5763 5765 5762 5757 5756 5745 5748 5750 5749 5749 5750 5750 5752 5755 5754 5756
5644 5669 5684 5684 5685 5684 5686 5683 5687 5685 5711 5718 5711 5700 5712 5726 5738 5740 5738 5740 5740 5741 5743 5748 5748 5748 5749 5746 5747 5752 5754 5750 5749 5746 5740 5739 5739 5739 5738 5739 5744 5747 5747 5748
5658 5683 5680 5684 5679 5686 5666 5695 5698 5689 5682 5658 5705 5649 5694 5713 5718 5726 5732 5733 5733 5737 5741 5741 5741 5739 5736 5737 5739 5738 5740 5739 5737 5737 5730 5722 5720 5720 5727 5728 5735 5736 5741 5745
5656 5666 5671 5672 5681 5690 5674 5695 5685 5685 5674 5672 5677 5652 5673 5702 5699 5713 5728 5730 5733 5737 5734 5732 5731 5729 5724 5727 5725 5723 5723 5725 5724 5722 5719 5714 5709 5710 5713 5717 5720 5724 5732 5739
5659 5681 5672 5675 5686 5689 5691 5682 5677 5673 5660 5628 5662 5658 5665 5690 5704 5716 5730 5739 5737 5733 5729 5722 5721 5719 5714 5715 5715 5714 5711 5708 5707 5707 5705 5701 5699 5700 5700 5704 5706 5712 5721 5721
5650 5659 5673 5679 5668 5680 5671 5660 5616 5612 5614 5616 5671 5657 5673 5700 5713 5720 5730 5733 5730 5724 5711 5707 5707 5707 5707 5704 5702 5700 5698 5695 5698 5695 5693 5691 5690 5688 5687 5690 5695 5702 5710 5716
5623 5625 5661 5675 5663 5655 5657 5647 5610 5601 5605 5625 5661 5648 5669 5703 5716 5722 5722 5723 5717 5705 5697 5694 5693 5693 5691 5690 5690 5690 5687 5684 5684 5684 5682 5681 5680 5677 5677 5680 5683 5689 5695 5701
5621 5630 5659 5664 5667 5660 5648 5633 5653 5627 5632 5611 5628 5654 5684 5695 5703 5698 5702 5704 5696 5693 5690 5688 5683 5681 5678 5677 5677 5677 5674 5670 5670 5669 5670 5668 5666 5665 5663 5664 5667 5671 5676 5681
5629 5613 5647 5655 5658 5659 5646 5657 5625 5614 5593 5589 5619 5639 5645 5653 5660 5669 5673 5670 5673 5674 5673 5669 5667 5668 5669 5669 5669 5670 5662 5659 5655 5652 5647 5645 5648 5650 5648 5647 5648 5654 5657 5660
5631 5610 5620 5632 5630 5627 5630 5626 5629 5621 5601 5576 5584 5619 5650 5645 5646 5648 5644 5660 5654 5651 5656 5659 5660 5662 5659 5656 5656 5654 5650 5645 5639 5638 5635 5631 5630 5632 5637 5636 5634 5636 5638 5638
5608 5599 5592 5611 5627 5634 5627 5619 5615 5591 5588 5594 5590 5605 5637 5638 5641 5644 5646 5641 5647 5655 5651 5648 5653 5650 5647 5647 5650 5643 5632 5628 5628 5628 5624 5618 5614 5612 5613 5612 5615 5621 5619 5617
5590 5579 5565 5583 5604 5617 5596 5597 5589 5579 5582 5583 5580 5593 5632 5634 5629 5634 5634 5632 5633 5635 5633 5636 5635 5628 5628 5631 5629 5625 5623 5618 5613 5611 5608 5605 5600 5596 5594 5596 5598 5599 5601 5600
5579 5570 5563 5547 5570 5583 5578 5590 5585 5570 5558 5568 5577 5590 5602 5615 5617 5620 5623 5623 5626 5626 5625 5625 5622 5621 5621 5618 5619 5618 5615 5611 5604 5599 5595 5593 5590 5586 5583 5583 5584 5584 5584 5584
5558 5547 5556 5557 5562 5571 5576 5578 5581 5567 5568 5556 5581 5585 5597 5609 5600 5611 5617 5613 5619 5615 5614 5611 5609 5607 5605 5604 5607 5609 5605 5598 5592 5586 5581 5577 5576 5574 5571 5569 5570 5573 5572 5574
5542 5535 5541 5542 5552 5558 5567 5576 5577 5583 5587 5587 5589 5593 5609 5610 5608 5603 5606 5611 5607 5608 5609 5609 5604 5597 5598 5597 5593 5590 5588 5586 5582 5577 5573 5568 5565 5560 5557 5556 5557 5559 5562 5564
5526 5522 5518 5526 5547 5535 5546 5570 5578 5583 5589 5587 5577 5584 5593 5589 5593 5595 5591 5589 5593 5593 5588 5585 5586 5585 5584 5580 5579 5575 5574 5572 5569 5565 5563 5559 5552 5549 5544 5542 5542 5546 5548 5553
5519 5516 5502 5510 5525 5528 5567 5590 5587 5589 5569 5577 5574 5576 5571 5567 5578 5579 5576 5569 5571 5572 5574 5574 5572 5569 5568 5568 5566 5564 5560 5558 5557 5554 5549 5543 5535 5529 5526 5525 5525 5527 5532 5538
5524 5508 5500 5508 5523 5546 5567 5574 5566 5563 5551 5558 5558 5562 5561 5560 5563 5558 5562 5559 5559 5560 5560 5561 5562 5563 5562 5560 5558 5556 5553 5553 5548 5543 5537 5532 5524 5515 5507 5502 5503 5508 5515 5519
5525 5509 5494 5503 5519 5529 5545 5548 5563 5561 5541 5553 5551 5548 5548 5549 5539 5546 5550 5549 5550 5551 5551 5550 5550 5550 5549 5549 5549 5549 5548 5540 5534 5531 5524 5516 5507 5499 5493 5490 5490 5494 5499 5508
5513 5505 5504 5501 5507 5525 5541 5550 5551 5535 5528 5543 5543 5544 5542 5536 5535 5540 5544 5543 5542 5540 5541 5542 5542 5542 5544 5537 5526 5524 5523 5521 5519 5513 5508 5503 5496 5488 5483 5484 5484 5485 5489 5497
5512 5511 5511 5508 5509 5521 5533 5534 5526 5528 5537 5538 5540 5539 5536 5534 5533 5530 5529 5530 5532 5531 5534 5536 5536 5528 5521 5516 5510 5510 5512 5510 5509 5504 5500 5493 5488 5483 5482 5483 5482 5482 5486 5490
5513 5511 5508 5500 5513 5523 5527 5521 5519 5520 5522 5526 5525 5525 5525 5522 5521 5517 5518 5519 5523 5527 5527 5519 5512 5511 5508 5507 5500 5504 5509 5506 5505 5502 5496 5490 5486 5483 5482 5480 5480 5480 5483 5486
5516 5519 5506 5512 5520 5521 5516 5511 5513 5514 5516 5515 5518 5517 5513 5502 5505 5508 5514 5516 5513 5506 5502 5500 5498 5499 5501 5501 5499 5497 5501 5501 5500 5499 5493 5488 5485 5480 5479 5477 5476 5478 5480 5481
5510 5517 5515 5513 5511 5513 5503 5500 5500 5505 5508 5505 5504 5500 5496 5496 5499 5502 5501 5495 5491 5489 5489 5490 5491 5495 5496 5495 5495 5494 5495 5494 5495 5494 5491 5488 5484 5478 5473 5472 5470 5470 5473 5473
5511 5503 5498 5493 5501 5500 5499 5502 5502 5497 5493 5493 5490 5490 5492 5492 5491 5483 5478 5477 5478 5480 5483 5486 5489 5491 5491 5491 5492 5493 5492 5490 5490 5490 5489 5487 5485 5478 5472 5465 5466 5466 5466 5465